Powrót do katalogu

THOR ABLESTAR DEB

AktywnyLEO
NORAD 145·DEBRIS·🇺🇸 United States

Wystrzelony Jun 29, 1961 z Cape Canaveral Space Force Station

Loading…

Następne Przeloty (najbliższe 24 godziny)

TLE

ŚwieżeSource: Space-Track

Epoka: Sep 14, 2026, 10:19 UTC

1 00145U 61015AF  26257.43045948  .00000149  00000-0  14238-3 0  9997
2 00145  66.9265 161.4686 0068038 233.5150 125.9656 14.03337240329232

Śledź THOR ABLESTAR DEB w czasie rzeczywistym z AllMySat

Download on the App Store